Tracking 35274 objects as of 11-Sep-2026
HD Live streaming from Space Station
objects crossing your sky now

NOAA 17 DEB

Track NOAA 17 DEB now!
10-day predictions


NORAD ID: 49487
Int'l Code: 2002-032DR
Launch date: June 24, 2002
Source: United States (US)
Launch site: AIR FORCE WESTERN TEST RANGE (AFWTR)

Note: This is SATELLITE DEBRIS
Your satellite tracking list
Your tracking list is empty




NASA's NSSDC Master Catalog

Two Line Element Set (TLE):
1 49487U 02032DR  26251.07711395  .00010463  00000-0  16442-2 0  9991
2 49487  98.8111 297.4159 0024644  44.7540 315.5648 14.72575827288988
Source of the keplerian elements: AFSPC